• în Republica Moldova
  • Lista ţărilor
  • Pe 7 zile
  • Temperatura apei
  • Hartă satelitară
  • Meteo pe hartă
  • Widget-uri
  • user-avatar
    Intrare

    Meteo pe oră la Algiers

    Astăzi, 31 Martie, Vineri

    Timp Temperatura Precipitaţii Vânt Presiune Umiditate
    00:00 +14°C° 0 mm 4 m/s 754 mmHg 32%
    01:00 +14°C° 0 mm 4 m/s 754 mmHg 33%
    02:00 +13°C° 0 mm 3 m/s 753 mmHg 33%
    03:00 +13°C° 0 mm 3 m/s 753 mmHg 34%
    04:00 +13°C° 0 mm 3 m/s 753 mmHg 37%
    05:00 +13°C° 0 mm 3 m/s 753 mmHg 40%
    06:00 +12°C° 0 mm 3 m/s 753 mmHg 43%
    07:00 +16°C° 0 mm 3 m/s 753 mmHg 42%
    08:00 +18°C° 0 mm 3 m/s 753 mmHg 42%
    09:00 +21°C° 0 mm 3 m/s 753 mmHg 41%
    10:00 +22°C° 0 mm 3 m/s 753 mmHg 38%
    11:00 +25°C° 0 mm 3 m/s 753 mmHg 34%
    12:00 +26°C° 0 mm 3 m/s 753 mmHg 30%
    13:00 +26°C° 0 mm 2 m/s 752 mmHg 34%
    14:00 +25°C° 0 mm 2 m/s 752 mmHg 38%
    15:00 +25°C° 0 mm 2 m/s 751 mmHg 41%
    16:00 +21°C° 0 mm 2 m/s 751 mmHg 53%
    17:00 +19°C° 0 mm 2 m/s 751 mmHg 64%
    18:00 +16°C° 0 mm 1 m/s 750 mmHg 76%
    19:00 +16°C° 0 mm 1 m/s 750 mmHg 75%
    20:00 +15°C° 0 mm 1 m/s 751 mmHg 73%
    21:00 +15°C° 0 mm 1 m/s 751 mmHg 72%
    22:00 +15°C° 0 mm 2 m/s 750 mmHg 65%
    23:00 +15°C° 0 mm 2 m/s 750 mmHg 58%

    Mâine, 1 Aprilie, Sâmbătă

    Timp Temperatura Precipitaţii Vânt Presiune Umiditate
    00:00 +16°C° 0 mm 3 m/s 750 mmHg 51%
    01:00 +14°C° 0 mm 3 m/s 750 mmHg 51%
    02:00 +14°C° 0 mm 4 m/s 749 mmHg 50%
    03:00 +13°C° 0 mm 5 m/s 749 mmHg 50%
    04:00 +13°C° 0 mm 5 m/s 749 mmHg 53%
    05:00 +13°C° 0 mm 6 m/s 749 mmHg 56%
    06:00 +11°C° 0 mm 6 m/s 749 mmHg 59%
    07:00 +14°C° 0,1 mm 7 m/s 749 mmHg 58%
    08:00 +16°C° 0,1 mm 7 m/s 750 mmHg 56%
    09:00 +18°C° 0,1 mm 8 m/s 750 mmHg 55%
    10:00 +18°C° 0,3 mm 9 m/s 750 mmHg 55%
    11:00 +18°C° 0,3 mm 9 m/s 750 mmHg 56%
    12:00 +18°C° 0,3 mm 10 m/s 750 mmHg 56%
    13:00 +17°C° 0,2 mm 10 m/s 750 mmHg 56%
    14:00 +17°C° 0,2 mm 9 m/s 750 mmHg 55%
    15:00 +17°C° 0,2 mm 9 m/s 750 mmHg 55%
    16:00 +15°C° 0 mm 8 m/s 750 mmHg 60%
    17:00 +14°C° 0 mm 6 m/s 750 mmHg 65%
    18:00 +12°C° 0 mm 5 m/s 751 mmHg 70%
    19:00 +10°C° 0 mm 5 m/s 751 mmHg 72%
    20:00 +10°C° 0 mm 4 m/s 751 mmHg 74%
    21:00 +8°C° 0 mm 4 m/s 752 mmHg 75%
    22:00 +8°C° 0 mm 4 m/s 752 mmHg 70%
    23:00 +8°C° 0 mm 4 m/s 751 mmHg 64%

    Poimâine, 2 Aprilie, Duminică

    Timp Temperatura Precipitaţii Vânt Presiune Umiditate
    00:00 +8°C° 0 mm 4 m/s 751 mmHg 58%
    01:00 +8°C° 0 mm 4 m/s 751 mmHg 56%
    02:00 +8°C° 0 mm 4 m/s 751 mmHg 53%
    03:00 +8°C° 0 mm 4 m/s 750 mmHg 51%
    04:00 +8°C° 0 mm 4 m/s 750 mmHg 53%
    05:00 +9°C° 0 mm 3 m/s 750 mmHg 55%
    06:00 +8°C° 0 mm 3 m/s 750 mmHg 57%
    07:00 +11°C° 0 mm 3 m/s 751 mmHg 56%
    08:00 +14°C° 0 mm 4 m/s 751 mmHg 55%
    09:00 +17°C° 0 mm 4 m/s 751 mmHg 54%
    10:00 +18°C° 0 mm 4 m/s 751 mmHg 53%
    11:00 +18°C° 0 mm 4 m/s 751 mmHg 52%
    12:00 +19°C° 0 mm 4 m/s 751 mmHg 51%
    13:00 +19°C° 0 mm 4 m/s 751 mmHg 51%
    14:00 +19°C° 0 mm 4 m/s 751 mmHg 52%
    15:00 +19°C° 0 mm 4 m/s 750 mmHg 53%
    16:00 +17°C° 0 mm 3 m/s 750 mmHg 62%
    17:00 +14°C° 0 mm 3 m/s 751 mmHg 71%
    18:00 +12°C° 0 mm 3 m/s 751 mmHg 80%
    19:00 +12°C° 0 mm 2 m/s 751 mmHg 84%
    20:00 +9°C° 0 mm 2 m/s 752 mmHg 88%
    21:00 +9°C° 0 mm 1 m/s 752 mmHg 91%
    22:00 +8°C° 0 mm 1 m/s 752 mmHg 92%
    23:00 +8°C° 0 mm 1 m/s 752 mmHg 92%

    3 Aprilie, Luni

    Timp Temperatura Precipitaţii Vânt Presiune Umiditate
    00:00 +8°C° 0 mm 1 m/s 752 mmHg 93%
    01:00 +8°C° 0 mm 1 m/s 752 mmHg 93%
    02:00 +7°C° 0 mm 1 m/s 752 mmHg 93%
    03:00 +7°C° 0 mm 1 m/s 752 mmHg 93%
    04:00 +7°C° 0 mm 1 m/s 752 mmHg 93%
    05:00 +8°C° 0 mm 1 m/s 752 mmHg 93%
    06:00 +8°C° 0 mm 1 m/s 752 mmHg 92%
    07:00 +10°C° 0,1 mm 1 m/s 753 mmHg 83%
    08:00 +13°C° 0,1 mm 1 m/s 753 mmHg 73%
    09:00 +16°C° 0,1 mm 2 m/s 753 mmHg 63%
    10:00 +17°C° 0 mm 2 m/s 753 mmHg 60%
    11:00 +17°C° 0 mm 2 m/s 753 mmHg 57%
    12:00 +18°C° 0 mm 2 m/s 753 mmHg 55%
    13:00 +18°C° 0 mm 3 m/s 753 mmHg 57%
    14:00 +18°C° 0 mm 3 m/s 753 mmHg 59%
    15:00 +17°C° 0 mm 3 m/s 753 mmHg 61%
    16:00 +16°C° 0 mm 3 m/s 753 mmHg 68%
    17:00 +14°C° 0 mm 2 m/s 753 mmHg 75%
    18:00 +13°C° 0 mm 2 m/s 753 mmHg 82%
    19:00 +12°C° 0 mm 2 m/s 754 mmHg 85%
    20:00 +11°C° 0 mm 1 m/s 754 mmHg 87%
    21:00 +9°C° 0 mm 1 m/s 755 mmHg 90%
    22:00 +9°C° 0 mm 1 m/s 754 mmHg 91%
    23:00 +9°C° 0 mm 1 m/s 754 mmHg 91%

    4 Aprilie, Marţi

    Timp Temperatura Precipitaţii Vânt Presiune Umiditate
    00:00 +8°C° 0 mm 1 m/s 754 mmHg 92%
    01:00 +8°C° 0 mm 1 m/s 754 mmHg 92%
    02:00 +8°C° 0 mm 1 m/s 753 mmHg 91%
    03:00 +7°C° 0 mm 1 m/s 753 mmHg 91%
    04:00 +8°C° 0 mm 1 m/s 753 mmHg 91%
    05:00 +8°C° 0 mm 1 m/s 753 mmHg 91%
    06:00 +8°C° 0 mm 1 m/s 753 mmHg 90%
    07:00 +11°C° 0 mm 1 m/s 754 mmHg 80%
    08:00 +14°C° 0 mm 1 m/s 754 mmHg 71%
    09:00 +18°C° 0 mm 1 m/s 754 mmHg 61%
    10:00 +18°C° 0 mm 2 m/s 754 mmHg 58%
    11:00 +19°C° 0 mm 2 m/s 753 mmHg 55%
    12:00 +20°C° 0 mm 2 m/s 753 mmHg 52%
    13:00 +20°C° 0 mm 3 m/s 753 mmHg 54%
    14:00 +20°C° 0 mm 3 m/s 752 mmHg 56%
    15:00 +20°C° 0 mm 4 m/s 752 mmHg 59%
    16:00 +18°C° 0 mm 3 m/s 752 mmHg 68%
    17:00 +16°C° 0 mm 3 m/s 752 mmHg 77%
    18:00 +13°C° 0 mm 3 m/s 753 mmHg 87%
    19:00 +12°C° 0 mm 3 m/s 753 mmHg 88%
    20:00 +11°C° 0 mm 3 m/s 753 mmHg 90%
    21:00 +9°C° 0 mm 3 m/s 754 mmHg 92%
    22:00 +9°C° 0 mm 3 m/s 754 mmHg 91%
    23:00 +9°C° 0 mm 3 m/s 753 mmHg 90%

    5 Aprilie, Miercuri

    Timp Temperatura Precipitaţii Vânt Presiune Umiditate
    00:00 +9°C° 0 mm 3 m/s 753 mmHg 90%
    01:00 +9°C° 0 mm 3 m/s 753 mmHg 88%
    02:00 +9°C° 0 mm 3 m/s 753 mmHg 87%
    03:00 +9°C° 0 mm 3 m/s 753 mmHg 86%
    04:00 +9°C° 0 mm 3 m/s 753 mmHg 84%
    05:00 +9°C° 0 mm 3 m/s 753 mmHg 82%
    06:00 +9°C° 0 mm 3 m/s 753 mmHg 79%
    07:00 +12°C° 0 mm 4 m/s 753 mmHg 69%
    08:00 +15°C° 0 mm 4 m/s 753 mmHg 59%
    09:00 +20°C° 0 mm 4 m/s 753 mmHg 48%
    10:00 +21°C° 0 mm 4 m/s 753 mmHg 45%
    11:00 +22°C° 0 mm 4 m/s 752 mmHg 42%
    12:00 +23°C° 0 mm 5 m/s 752 mmHg 39%
    13:00 +23°C° 0 mm 5 m/s 752 mmHg 42%
    14:00 +23°C° 0 mm 6 m/s 751 mmHg 45%
    15:00 +23°C° 0 mm 7 m/s 751 mmHg 47%
    16:00 +20°C° 0 mm 7 m/s 751 mmHg 56%
    17:00 +17°C° 0 mm 6 m/s 751 mmHg 66%
    18:00 +15°C° 0 mm 6 m/s 751 mmHg 75%
    19:00 +14°C° 0 mm 6 m/s 751 mmHg 78%
    20:00 +11°C° 0 mm 6 m/s 751 mmHg 81%
    21:00 +10°C° 0 mm 6 m/s 752 mmHg 84%
    22:00 +10°C° 0 mm 5 m/s 752 mmHg 83%
    23:00 +10°C° 0 mm 4 m/s 751 mmHg 83%
    Arată mai mult